Tiempo cada hora Çayıralan

Hoy, 27 Enero, Miércoles

Tiempo Temperatura Precipitaciones Viento Presión Humedad
00:00 -3°C° 0 mm 4 mps 644 mmHg 79%
01:00 -3°C° 0 mm 4 mps 643 mmHg 79%
02:00 -2°C° 0 mm 2 mps 642 mmHg 82%
03:00 -2°C° 0 mm 3 mps 642 mmHg 81%
04:00 -4°C° 0 mm 3 mps 642 mmHg 80%
05:00 -4°C° 0 mm 3 mps 641 mmHg 79%
06:00 -4°C° 0 mm 4 mps 641 mmHg 76%
07:00 -3°C° 0 mm 4 mps 641 mmHg 74%
08:00 -4°C° 0 mm 5 mps 641 mmHg 72%
09:00 -3°C° 0 mm 6 mps 640 mmHg 69%
10:00 -2°C° 0 mm 7 mps 640 mmHg 67%
11:00 -1°C° 0 mm 8 mps 639 mmHg 64%
12:00 0°C° 0 mm 8 mps 638 mmHg 64%
13:00 0°C° 0 mm 8 mps 638 mmHg 63%
14:00 +1°C° 0 mm 8 mps 637 mmHg 62%
15:00 0°C° 0 mm 8 mps 636 mmHg 62%
16:00 -1°C° 0 mm 8 mps 636 mmHg 61%
17:00 -1°C° 0 mm 8 mps 636 mmHg 60%
18:00 -2°C° 0 mm 8 mps 636 mmHg 62%
19:00 -2°C° 0 mm 8 mps 636 mmHg 63%
20:00 -4°C° 0 mm 8 mps 636 mmHg 65%
21:00 -4°C° 0 mm 8 mps 636 mmHg 66%
22:00 -4°C° 0 mm 8 mps 636 mmHg 67%
23:00 -4°C° 0 mm 8 mps 636 mmHg 68%

Mañana, 28 Enero, Jueves

Tiempo Temperatura Precipitaciones Viento Presión Humedad
00:00 -3°C° 0.2 mm 7 mps 636 mmHg 74%
01:00 -4°C° 0.2 mm 5 mps 635 mmHg 80%
02:00 -2°C° 0.2 mm 3 mps 635 mmHg 86%
03:00 -2°C° 0.8 mm 3 mps 635 mmHg 89%
04:00 -2°C° 0.8 mm 3 mps 635 mmHg 92%
05:00 -3°C° 0.8 mm 2 mps 636 mmHg 94%
06:00 -4°C° 1.2 mm 3 mps 636 mmHg 95%
07:00 -4°C° 1.2 mm 4 mps 636 mmHg 95%
08:00 -5°C° 1.2 mm 5 mps 637 mmHg 95%
09:00 -5°C° 0.8 mm 5 mps 637 mmHg 92%
10:00 -5°C° 0.8 mm 6 mps 638 mmHg 89%
11:00 -4°C° 0.8 mm 6 mps 638 mmHg 85%
12:00 -4°C° 0.1 mm 5 mps 638 mmHg 86%
13:00 -3°C° 0.1 mm 4 mps 638 mmHg 86%
14:00 -2°C° 0.1 mm 3 mps 638 mmHg 87%
15:00 -3°C° 0.1 mm 2 mps 638 mmHg 89%
16:00 -4°C° 0.1 mm 2 mps 638 mmHg 90%
17:00 -3°C° 0.1 mm 1 mps 638 mmHg 92%
18:00 -3°C° 0.3 mm 1 mps 638 mmHg 91%
19:00 -5°C° 0.3 mm 2 mps 639 mmHg 90%
20:00 -5°C° 0.3 mm 2 mps 639 mmHg 88%
21:00 -5°C° 0.1 mm 2 mps 639 mmHg 88%
22:00 -6°C° 0.1 mm 2 mps 639 mmHg 87%
23:00 -4°C° 0.1 mm 1 mps 639 mmHg 86%

Pasado mañana, 29 Enero, Viernes

Tiempo Temperatura Precipitaciones Viento Presión Humedad
00:00 -4°C° 0.1 mm 1 mps 639 mmHg 88%
01:00 -6°C° 0.1 mm 1 mps 639 mmHg 90%
02:00 -6°C° 0.1 mm 1 mps 639 mmHg 92%
03:00 -6°C° 0 mm 1 mps 639 mmHg 91%
04:00 -6°C° 0 mm 1 mps 639 mmHg 90%
05:00 -7°C° 0 mm 1 mps 639 mmHg 90%
06:00 -6°C° 0 mm 1 mps 639 mmHg 88%
07:00 -6°C° 0 mm 1 mps 640 mmHg 87%
08:00 -6°C° 0 mm 1 mps 640 mmHg 86%
09:00 -4°C° 0 mm 1 mps 640 mmHg 84%
10:00 -3°C° 0 mm 1 mps 640 mmHg 83%
11:00 -1°C° 0 mm 1 mps 641 mmHg 81%
12:00 -1°C° 0 mm 1 mps 640 mmHg 81%
13:00 -1°C° 0 mm 1 mps 640 mmHg 81%
14:00 0°C° 0 mm 1 mps 640 mmHg 80%
15:00 -2°C° 0 mm 1 mps 640 mmHg 82%
16:00 -4°C° 0 mm 0 mps 639 mmHg 84%
17:00 -6°C° 0 mm 0 mps 639 mmHg 86%
18:00 -6°C° 0 mm 0 mps 639 mmHg 85%
19:00 -6°C° 0 mm 1 mps 640 mmHg 84%
20:00 -7°C° 0 mm 1 mps 640 mmHg 83%
21:00 -7°C° 0 mm 1 mps 640 mmHg 83%
22:00 -7°C° 0 mm 1 mps 640 mmHg 82%
23:00 -7°C° 0 mm 1 mps 640 mmHg 81%

30 Enero, Sábado

Tiempo Temperatura Precipitaciones Viento Presión Humedad
00:00 -7°C° 0 mm 1 mps 640 mmHg 82%
01:00 -7°C° 0 mm 1 mps 640 mmHg 82%
02:00 -7°C° 0 mm 1 mps 640 mmHg 83%
03:00 -7°C° 0 mm 1 mps 640 mmHg 83%
04:00 -7°C° 0 mm 1 mps 639 mmHg 84%
05:00 -7°C° 0 mm 1 mps 639 mmHg 84%
06:00 -7°C° 0 mm 1 mps 640 mmHg 84%
07:00 -8°C° 0 mm 2 mps 640 mmHg 84%
08:00 -7°C° 0 mm 2 mps 640 mmHg 83%
09:00 -6°C° 0 mm 2 mps 640 mmHg 81%
10:00 -4°C° 0 mm 2 mps 640 mmHg 80%
11:00 -3°C° 0 mm 2 mps 640 mmHg 78%
12:00 -2°C° 0 mm 2 mps 639 mmHg 77%
13:00 -2°C° 0 mm 3 mps 639 mmHg 77%
14:00 -1°C° 0 mm 3 mps 638 mmHg 76%
15:00 -2°C° 0 mm 3 mps 638 mmHg 78%
16:00 -4°C° 0 mm 3 mps 637 mmHg 79%
17:00 -5°C° 0 mm 3 mps 637 mmHg 81%
18:00 -5°C° 0.1 mm 4 mps 637 mmHg 82%
19:00 -5°C° 0.1 mm 5 mps 637 mmHg 82%
20:00 -5°C° 0.1 mm 5 mps 637 mmHg 83%
21:00 -5°C° 1 mm 5 mps 637 mmHg 86%
22:00 -4°C° 1 mm 5 mps 637 mmHg 90%
23:00 -4°C° 1 mm 5 mps 637 mmHg 93%

31 Enero, Domingo

Tiempo Temperatura Precipitaciones Viento Presión Humedad
00:00 -3°C° 1.3 mm 4 mps 637 mmHg 95%
01:00 -2°C° 1.3 mm 3 mps 637 mmHg 96%
02:00 -2°C° 1.3 mm 2 mps 637 mmHg 98%
03:00 -1°C° 0.4 mm 2 mps 638 mmHg 98%
04:00 -1°C° 0.4 mm 2 mps 638 mmHg 98%
05:00 +1°C° 0.4 mm 2 mps 638 mmHg 98%
06:00 +1°C° 0.1 mm 2 mps 639 mmHg 98%
07:00 +1°C° 0.1 mm 2 mps 640 mmHg 99%
08:00 +1°C° 0.1 mm 2 mps 640 mmHg 99%
09:00 +1°C° 0 mm 2 mps 641 mmHg 99%
10:00 +1°C° 0 mm 2 mps 641 mmHg 99%
11:00 +2°C° 0 mm 2 mps 641 mmHg 99%
12:00 +2°C° 0 mm 2 mps 641 mmHg 99%
13:00 +2°C° 0 mm 2 mps 641 mmHg 99%
14:00 +2°C° 0 mm 2 mps 641 mmHg 99%
15:00 +1°C° 0 mm 2 mps 641 mmHg 98%
16:00 +1°C° 0 mm 2 mps 641 mmHg 96%
17:00 -1°C° 0 mm 2 mps 641 mmHg 95%
18:00 -1°C° 0 mm 2 mps 642 mmHg 94%
19:00 -1°C° 0 mm 3 mps 642 mmHg 93%
20:00 -2°C° 0 mm 3 mps 642 mmHg 92%
21:00 -2°C° 0 mm 3 mps 643 mmHg 91%
22:00 -2°C° 0 mm 3 mps 643 mmHg 90%
23:00 -2°C° 0 mm 3 mps 643 mmHg 89%

1 Febrero, Lunes

Tiempo Temperatura Precipitaciones Viento Presión Humedad
00:00 -2°C° 0 mm 3 mps 643 mmHg 89%
01:00 -2°C° 0 mm 3 mps 643 mmHg 88%
02:00 -2°C° 0 mm 3 mps 643 mmHg 87%
03:00 -2°C° 0 mm 3 mps 643 mmHg 86%
04:00 -2°C° 0 mm 3 mps 644 mmHg 85%
05:00 -2°C° 0 mm 3 mps 644 mmHg 85%
06:00 -1°C° 0 mm 3 mps 644 mmHg 84%
07:00 -1°C° 0 mm 3 mps 645 mmHg 84%
08:00 -1°C° 0 mm 3 mps 645 mmHg 84%
09:00 0°C° 0 mm 3 mps 645 mmHg 88%
10:00 +1°C° 0 mm 3 mps 645 mmHg 92%
11:00 +2°C° 0 mm 3 mps 645 mmHg 96%
12:00 +2°C° 0 mm 3 mps 645 mmHg 95%
13:00 +2°C° 0 mm 3 mps 645 mmHg 95%
14:00 +2°C° 0 mm 3 mps 644 mmHg 95%
15:00 +2°C° 0 mm 3 mps 644 mmHg 94%
16:00 +1°C° 0 mm 3 mps 644 mmHg 93%
17:00 0°C° 0 mm 3 mps 644 mmHg 92%
18:00 0°C° 0 mm 3 mps 645 mmHg 91%
19:00 0°C° 0 mm 3 mps 645 mmHg 90%
20:00 -1°C° 0 mm 3 mps 646 mmHg 89%
21:00 -1°C° 0 mm 3 mps 646 mmHg 88%
22:00 -1°C° 0 mm 3 mps 646 mmHg 87%
23:00 -1°C° 0 mm 3 mps 646 mmHg 86%
Mostrar más